Location: UFOWorks Observatory
(42.1050°N, 72.2350°W)
Time: 04:19:05
(UTC-04:00)

ISS - Visible Passes

Search period start: 23 September 2014 00:00
Search period end: 03 October 2014 00:00
Orbit: 413 x 416 km, 51.6° (Epoch: 23 September)

Date Brightness Start Highest point End Pass type
(mag) Time Alt. Az. Time Alt. Az. Time Alt. Az.
23 Sep -0.4 04:07:28 14° NNE 04:07:28 14° NNE 04:08:29 10° NE visible
23 Sep -0.9 05:41:22 10° NW 05:43:46 18° N 05:46:10 10° ENE visible
24 Sep -0.9 04:53:25 14° NNW 04:54:36 16° N 04:56:48 10° NE visible
25 Sep -0.3 04:06:30 14° NNE 04:06:30 14° NNE 04:07:31 10° NE visible
25 Sep -1.3 05:40:04 10° NW 05:42:56 26° NNE 05:45:47 10° E visible
26 Sep -1.1 04:52:31 17° NNW 04:53:46 21° NNE 04:56:21 10° ENE visible
27 Sep -0.3 04:05:42 15° NE 04:05:42 15° NE 04:06:53 10° NE visible
27 Sep -2.4 05:38:35 10° NW 05:41:50 48° NNE 05:45:04 10° ESE visible
28 Sep -1.8 04:51:51 28° N 04:52:42 32° NNE 04:55:44 10° E visible
29 Sep -0.2 04:05:14 16° ENE 04:05:14 16° ENE 04:06:17 10° ENE visible
29 Sep -3.3 05:38:08 18° WNW 05:40:26 69° SW 05:43:44 10° SE visible
30 Sep -2.9 04:51:38 65° ENE 04:51:38 65° ENE 04:54:40 10° ESE visible
01 Oct 0.1 04:05:17 11° E 04:05:17 11° E 04:05:23 10° ESE visible
01 Oct -2.1 05:38:12 24° WSW 05:38:44 25° SW 05:41:31 10° SSE visible
02 Oct -1.0 04:52:00 17° SSE 04:52:00 17° SSE 04:52:53 10° SSE visible
